User: anonymous   Login
Location: Carri�res
(48.9069°N, 2.1792°E)
Time: 05:48:09
(UTC+00:00)
Language:

Cosmos 2142 Rocket - Orbit

View from above orbital plane
View from above orbital plane
View from above satellite
View from above satellite

Ground track
Ground track

The orbit data is extracted from the following two-line orbital elements,

1 21231U 91029B   21112.56205916  .00000051  00000-0  36932-4 0  9994
2 21231  82.9505 147.5933 0033813 263.0410 205.8081 13.75831894506763
Epoch (UTC): 22 April 2021 13:29:21
Eccentricity: 0.0033813
inclination: 82.9505°
perigee height: 954 km
apogee height: 1003 km
right ascension of ascending node: 147.5933°
argument of perigee: 263.0410°
revolutions per day: 13.75831894
mean anomaly at epoch: 205.8081°
orbit number at epoch: 50676

The dashed part of the orbit path shows where the satellite is in the earth's shadow,  

DLR